Location: Drieboerehuizen
(53.3833°N, 5.9333°E)
Time: 14:31:35
(UTC+00:00)

Daily predictions for brighter satellites

Satellite Brightness Start Highest point End
(mag) Time Altitude Azimuth Time Altitude Azimuth Time Altitude Azimuth
USA 234 3.7 20:40:55 10° E 20:47:26 67° N 20:53:55 10° WNW
ARIANE 5 R/B 3.2 20:45:03 10° SE 20:49:17 46° ENE 20:53:31 10° N
Terra 2.0 20:45:01 10° SSE 20:49:42 63° ENE 20:54:26 10° N
Cosmos 2278 4.0 20:45:27 10° NNW 20:51:09 62° NE 20:56:48 10° SE
RESURS DK-1 4.2 20:47:50 10° NW 20:51:12 24° WSW 20:54:34 10° SSW
SPOT 3 Rocket 3.9 20:46:24 10° S 20:51:34 66° WSW 20:56:48 10° NNW
SPOT 5 2.6 20:48:06 10° SSE 20:52:26 89° ENE 20:56:48 10° NNW
Cosmos 2341 Rocket 4.4 20:46:23 10° N 20:52:35 52° ENE 20:58:39 10° SSE
USA 276 2.5 20:50:20 10° W 20:53:12 40° S 20:56:05 10° ESE
FALCON 9 DEB 3.3 20:51:07 10° W 20:54:18 50° SSW 20:57:28 10° SE
Cosmos 1726 Rocket 3.6 20:51:55 10° N 20:56:15 72° ENE 21:00:35 10° SSE
Cosmos 2333 Rocket 4.3 20:52:59 10° NNW 20:57:23 22° NNE 21:01:46 10° ENE
IRAS Rocket 4.3 20:55:07 10° NNE 21:00:45 89° WNW 21:06:19 10° SSW
Cosmos 1486 Rocket 4.5 20:59:13 10° NNW 21:04:21 54° ENE 21:09:28 10° SE
Cosmos 1331 Rocket 4.1 20:59:03 10° SSW 21:04:22 85° ESE 21:09:42 10° NNE
Cosmos 2082 Rocket 2.6 21:00:07 10° S 21:05:30 45° ESE 21:10:54 10° NE
ASTEX 1 4.3 21:02:26 10° NNE 21:06:58 33° E 21:11:28 10° SSE
Helios 1A Rocket 3.2 21:05:45 10° S 21:09:49 68° WSW 21:13:56 10° NNW
Spot 2 Rocket 3.8 21:05:12 10° S 21:10:17 67° WSW 21:15:25 10° NNW
Cosmos 1328 3.8 21:06:38 10° S 21:10:37 72° E 21:14:35 10° NNE
Cosmos 2360 Rocket 3.7 21:06:46 10° NNW 21:11:46 30° NE 21:16:44 10° E
Nadezhda 1 Rocket 4.0 21:10:01 10° S 21:16:05 89° W 21:22:13 10° N
ERS-1 Rocket 3.5 21:22:59 10° S 21:27:56 55° W 21:32:53 10° NNW
Cosmos 1892 3.0 21:26:28 10° S 21:30:06 50° E 21:33:48 10° NNE
Cosmos 1302 Rocket 4.0 21:31:15 10° SSW 21:36:26 80° ESE 21:41:40 10° NNE
Cosmos 192 4.4 21:34:47 10° SSW 21:39:42 85° WNW 21:44:38 10° NNE
Cosmos 968 Rocket 4.3 21:36:27 10° NW 21:41:23 44° WSW 21:46:20 10° S
Cosmos 1503 Rocket 4.3 21:37:32 10° NNW 21:42:50 65° ENE 21:47:32 13° SE
Cosmos 1892 Rocket 3.6 21:39:00 10° SSW 21:43:24 81° WNW 21:47:47 10° N
Cosmos 1697 Rocket 4.4 21:39:21 10° NW 21:43:43 24° WSW 21:48:04 10° SSW
Cosmos 1980 Rocket 3.1 21:39:27 10° NW 21:44:47 41° WSW 21:50:03 10° S
Cosmos 2219 Rocket 3.9 21:42:40 10° NNW 21:47:30 27° NE 21:52:19 10° E
SL-16 R/B 2.3 21:42:08 10° NNW 21:47:50 75° NE 21:52:57 13° SE
ALOS 2 4.1 21:44:29 10° ESE 21:48:09 26° ENE 21:51:49 10° N
Cosmos 2058 Rocket 3.5 21:44:42 10° NNW 21:49:05 61° W 21:53:20 11° S
SL-8 Rocket 4.1 21:45:55 10° NNW 21:52:11 81° W 21:58:01 12° S
Cosmos 1408 2.5 21:48:57 10° SSW 21:52:23 76° WNW 21:55:52 10° N
CZ-2C R/B 4.1 21:48:15 10° N 21:52:47 66° WNW 21:57:13 10° SSW
USA 267 4.1 21:47:51 10° ENE 21:53:17 27° SE 21:58:41 10° S
Cosmos 1626 Rocket 3.9 21:50:06 14° SSE 21:53:38 49° E 21:57:52 10° NNE
ATLAS 5 CENTAUR R/B 1.7 21:51:43 10° SSW 21:55:18 43° SE 21:59:21 10° NE
SJ 16-02 1.8 21:55:34 10° NNW 21:59:58 56° ENE 22:03:35 15° SE
SL-4 R/B 3.5 22:04:44 14° SE 22:04:44 14° SE 22:06:05 10° ESE
In-Cosmos 22 Rocket 4.1 21:59:08 10° S 22:04:38 80° ESE 22:10:04 10° NNE
COSMOS 2406 3.8 22:00:09 10° SW 22:05:52 62° NW 22:11:36 10° NNE
Cosmos 1825 2.1 22:08:00 15° S 22:11:05 82° E 22:14:51 10° NNE
Cosmos 1833 Rocket 4.1 22:06:08 10° WSW 22:11:24 40° NW 22:16:43 10° NNE
Cosmos 2221 4.5 22:08:27 10° NNE 22:11:45 21° ENE 22:15:02 10° ESE
Cosmos 2366 rocket 4.2 22:06:13 10° NNW 22:12:32 70° W 22:18:15 13° S
Cosmos 1869 3.6 22:11:33 10° NNW 22:15:24 60° W 22:18:25 16° S
Cosmos 2218 Rocket 4.4 22:12:38 10° NNW 22:18:59 64° W 22:24:42 13° S
Cosmos 2322 Rocket 2.2 22:16:11 10° NNW 22:21:54 88° SW 22:26:28 16° SSE
GP-B 3.7 22:17:59 10° N 22:22:20 53° W 22:26:26 11° SSW
ARIANE 5 R/B 4.3 22:22:12 10° SSW 22:25:56 26° W 22:29:40 10° NW
SAR-Lupe-4 3.7 22:22:57 10° NNE 22:26:33 74° WNW 22:29:35 14° SSW
Terra 3.8 22:24:12 10° SW 22:27:53 22° W 22:31:35 10° NW
USA 276 3.6 22:26:16 10° WSW 22:28:29 19° SSW 22:28:42 19° SSW
USA 234 3.3 22:23:48 10° ESE 22:30:23 84° SSW 22:37:00 10° WNW
BREEZE-M DEB (TANK) 3.8 22:33:28 10° W 22:36:37 52° S 22:47:34 10° ESE
Cosmos 1633 2.4 22:39:00 20° SSW 22:41:17 87° W 22:44:46 10° N
Cosmos 2333 Rocket 2.6 22:37:05 10° NNW 22:42:50 63° NE 22:48:05 12° SE
Cosmos 1992 Rocket 4.3 22:38:50 10° SW 22:44:02 67° WNW 22:49:19 10° NNE
Okean 1-7 Rocket 4.3 22:40:57 10° SSW 22:45:15 51° WNW 22:49:42 10° N
Cosmos 1758 Rocket 3.5 22:42:24 19° S 22:45:31 81° E 22:49:58 10° NNE
ASTEX 1 4.5 22:41:22 10° N 22:46:03 42° WNW 22:50:44 10° SW
Cosmos 2082 Rocket 3.3 22:44:12 10° WSW 22:49:39 45° NW 22:55:07 10° NNE
Cosmos 1606 2.7 22:48:09 10° NNW 22:52:01 75° W 22:54:21 23° S
Cosmos-2242 3.3 22:48:10 10° NNW 22:52:21 58° W 22:55:10 20° S
Cosmos 1812 Rocket 4.2 22:48:46 10° NNW 22:53:04 48° W 22:56:09 18° SSW
Cosmos 2360 Rocket 2.2 22:50:40 10° NW 22:56:22 77° WSW 23:00:31 19° SSE
ADEOS Rocket 3.6 22:53:14 17° SSE 22:59:15 86° WSW 23:07:07 10° NNW
ISS -1.4 23:00:49 12° ESE 23:00:49 12° ESE 23:01:16 10° ESE
Cosmos 1340 Rocket 3.3 22:58:42 23° SSE 23:00:49 45° E 23:04:39 10° NNE
Gbstr 26 Del rocket 3.8 22:59:00 19° SSW 23:01:21 32° SE 23:05:50 10° E
Cosmos 2333 4.3 23:00:10 10° NNW 23:05:59 85° ENE 23:10:38 17° SSE
Cosmos 1821 Rocket 4.4 23:00:36 10° NNW 23:06:42 57° W 23:11:22 17° SSW
Cosmos 1602 Rocket 4.3 23:05:35 14° SSW 23:09:10 48° WNW 23:13:23 10° N
BREEZE-M DEB (TANK) 4.1 23:12:24 19° SE 23:12:28 19° SE 23:15:59 10° E
Meteor 2-11 Rocket 4.5 23:06:43 10° N 23:12:54 81° ENE 23:17:23 19° SSE
SL-27 R/B 3.9 23:13:18 19° SE 23:14:17 22° ESE 23:16:53 10° NE
Cosmos 972 Rocket 4.1 23:09:30 10° NNW 23:14:41 79° WSW 23:18:41 20° SSE
Cosmos 44 3.6 23:14:09 22° S 23:16:35 41° ESE 23:20:46 10° NE
Cosmos 1833 4.5 23:14:26 20° S 23:18:06 51° ESE 23:23:31 10° NE
Cosmos 1782 4.0 23:15:51 10° N 23:19:31 34° ENE 23:22:20 15° SE
ERS-2 2.6 23:17:45 10° NNE 23:21:14 46° E 23:22:56 25° SSE
Lacrosse 4 Rocket 4.3 23:19:55 10° NNW 23:22:25 16° NNE 23:24:54 10° ENE
Cosmos 2237 Rocket 3.8 23:17:26 10° NNW 23:22:35 34° NE 23:27:41 10° ESE
Cosmos 1605 Rocket 4.2 23:17:07 10° N 23:23:34 73° ENE 23:28:27 18° SSE
ALOS 2 3.2 23:21:37 21° SSW 23:24:16 48° W 23:28:33 10° NNW
CENTAUR R/B 3.9 23:22:31 15° SE 23:25:35 22° ESE 23:30:39 10° ENE
COSMOS 2428 3.0 23:23:32 10° NNW 23:29:16 70° NE 23:34:37 12° SE
H-2A R/B 3.6 23:25:42 10° N 23:29:54 70° WNW 23:32:48 19° SSW
NOSS 8 (A) 4.3 23:29:31 28° SSW 23:30:54 52° SE 23:33:46 10° NE
SL-16 R/B 3.7 23:26:57 10° NW 23:31:25 24° WSW 23:34:48 14° SSW
Cosmos 2219 Rocket 2.2 23:26:27 10° NNW 23:32:11 87° WSW 23:36:41 17° SSE
Cosmos 2058 3.2 23:29:58 20° SSW 23:32:45 64° WNW 23:36:55 10° N
Cosmos 2297 Rocket 4.5 23:32:04 10° ESE 23:32:54 10° E 23:33:46 10° E
Nadezhda 3 Rocket 4.3 23:28:02 15° SSW 23:33:09 62° WNW 23:39:18 10° N
Cosmos 2151 4.3 23:31:03 17° SE 23:33:36 30° E 23:37:22 10° NNE
Cosmos 1953 Rocket 3.6 23:33:03 22° SSW 23:35:53 85° WNW 23:40:19 10° N
USA 267 3.2 23:30:33 10° ENE 23:37:05 70° SSE 23:43:37 10° SW
SJ 16-02 3.0 23:34:45 10° NW 23:38:10 22° W 23:40:31 15° SW
ATLAS 5 CENTAUR R/B 2.8 23:36:04 10° W 23:39:50 41° NNW 23:44:14 10° NE
Cosmos 2322 3.7 23:35:37 10° NNW 23:41:20 82° WSW 23:45:45 17° SSE
Cosmos 1898 Rocket 3.7 23:37:28 10° NNW 23:42:40 71° ENE 23:47:02 15° SE
SL-4 R/B 1.9 23:40:05 15° SW 23:42:43 46° SSE 23:46:18 10° E
Cosmos 1825 Rocket 4.2 23:41:10 17° SW 23:44:17 48° WNW 23:48:32 10° N
Cosmos 1937 Rocket 3.9 23:42:36 10° NNW 23:47:50 60° ENE 23:52:46 11° SE
Cosmos 2221 2.8 23:45:22 10° NNW 23:49:40 59° W 23:52:14 23° SSW
COSMOS 2455 3.5 23:44:08 10° NW 23:50:05 57° NE 23:56:00 10° ESE
PSLV R/B 3.8 23:47:48 10° NNE 23:52:35 76° ESE 23:55:36 22° S
NOSS 0 Rocket 4.2 23:47:10 10° NNW 23:53:22 70° NE 23:59:30 10° SE
